Starlink 3942

operational
NORAD ID: 52563 Int'l Des: 2022-051 Owner: SPXS Country: US Constellation: starlink
LEOCIRCULAR

Starlink 3942について

説明を読み込み中...

リアルタイム位置

3D地球を読み込み中...

次回通過

高度履歴

Altitude vs Time

uPlot chart will show altitude changes over time

軌道要素

1 52563U 22051AG 26062.47386134 .00003329 00000-0 22713-3 0 9998
2 52563 53.2179 162.0257 0001332 79.6186 280.4956 15.08847854210433
Epoch: Mar 3, 2026 • Age: 28 hours

現在のステータス

高度 545.3 km
速度 7.60 km/s
衛星直下点 52.90°N, 21.92°E
打ち上げ日 May 13, 2022
運用期間 3.8 years
タイプ internet

技術仕様

分類 Payload
質量 297.00 kg
乾燥質量 275.00 kg
総質量 297.00 kg
長さ 0.20 m
直径 2.80 m
スパン 9.00 m
形状 Box + pan
製造者 SPXS
バスタイプ Starlink
フェーズステータス In Orbit
所有者/国 SPXS/US

大規模コンステレーション

Loading constellations...